User: anonymous   Login
Location: Niverville
(49.6028°N, 97.0419°W)
Time: 03:18:54
(UTC-05:00)
Language:

Cosmos 2237 Rocket - Orbit

View from above orbital plane
View from above orbital plane
View from above satellite
View from above satellite

Ground track
Ground track

The orbit data is extracted from the following two-line orbital elements,

1 22566U 93016B   16273.41174134  .00000325  00000-0  19253-3 0  9997
2 22566  71.0063 254.3014 0010237 182.7703 177.3364 14.14937985214380
Epoch (UTC): 29 September 2016 09:52:54
Eccentricity: 0.0010237
inclination: 71.0063°
perigee height: 835 km
apogee height: 850 km
right ascension of ascending node: 254.3014°
argument of perigee: 182.7703°
revolutions per day: 14.14937985
mean anomaly at epoch: 177.3364°
orbit number at epoch: 21438

The dashed part of the orbit path shows where the satellite is in the earth's shadow,  

DLR